Time,TemperatureF,DewpointF,PressureIn,WindDirection,WindDirectionDegrees,WindSpeedMPH,WindSpeedGustMPH,Humidity,HourlyPrecipIn,Conditions,Clouds,dailyrainin,SolarRadiationWatts/m^2,SoftwareType,DateUTC
2013-02-15 00:11:00,55.0,44.0,-100.00,North,5,8.0,11.0,66,0.00,,,0.00,0.000000,,2013-02-15 10:11:00,
2013-02-15 00:21:00,55.0,44.0,-100.00,North,5,8.0,11.0,66,0.00,,,0.00,0.000000,,2013-02-15 10:21:00,
2013-02-15 00:31:00,55.0,44.0,-100.00,North,5,8.0,11.0,66,0.00,,,0.00,0.000000,,2013-02-15 10:31:00,
2013-02-15 00:41:00,55.0,44.0,-100.00,North,5,8.0,11.0,66,0.00,,,0.00,0.000000,,2013-02-15 10:41:00,
2013-02-15 01:11:00,53.0,39.0,-100.00,NNE,18,5.0,11.0,59,0.00,,,0.00,0.000000,,2013-02-15 11:11:00,
2013-02-15 01:22:00,53.0,39.0,-100.00,NNE,18,5.0,11.0,59,0.00,,,0.00,0.000000,,2013-02-15 11:22:00,
2013-02-15 01:31:00,53.0,39.0,-100.00,NNE,18,5.0,11.0,59,0.00,,,0.00,0.000000,,2013-02-15 11:31:00,
2013-02-15 01:42:00,53.0,39.0,-100.00,NNE,18,5.0,11.0,59,0.00,,,0.00,0.000000,,2013-02-15 11:42:00,
2013-02-15 02:11:00,52.0,38.0,-100.00,NNW,333,7.0,11.0,58,-99.99,,,-99.99,0.000000,,2013-02-15 12:11:00,
2013-02-15 02:21:00,52.0,38.0,-100.00,NNW,333,7.0,11.0,58,-99.99,,,-99.99,0.000000,,2013-02-15 12:21:00,
2013-02-15 02:31:00,52.0,38.0,-100.00,NNW,333,7.0,11.0,58,-99.99,,,-99.99,0.000000,,2013-02-15 12:31:00,
2013-02-15 02:42:00,52.0,38.0,-100.00,NNW,333,7.0,11.0,58,-99.99,,,-99.99,0.000000,,2013-02-15 12:42:00,
2013-02-15 03:11:00,53.0,37.0,-100.00,North,355,5.0,9.0,54,-99.99,,,0.00,0.000000,,2013-02-15 13:11:00,
2013-02-15 03:21:00,53.0,37.0,-100.00,North,355,5.0,9.0,54,-99.99,,,0.00,0.000000,,2013-02-15 13:21:00,
2013-02-15 03:31:00,53.0,37.0,-100.00,North,355,5.0,9.0,54,-99.99,,,0.00,0.000000,,2013-02-15 13:31:00,
2013-02-15 03:41:00,53.0,37.0,-100.00,North,355,5.0,9.0,54,-99.99,,,0.00,0.000000,,2013-02-15 13:41:00,
2013-02-15 04:11:00,55.0,39.0,-100.00,NNW,327,9.0,11.0,55,0.00,,,0.00,0.000000,,2013-02-15 14:11:00,
2013-02-15 04:21:00,55.0,39.0,-100.00,NNW,327,9.0,11.0,55,0.00,,,0.00,0.000000,,2013-02-15 14:21:00,
2013-02-15 04:32:00,55.0,39.0,-100.00,NNW,327,9.0,11.0,55,0.00,,,0.00,0.000000,,2013-02-15 14:32:00,
2013-02-15 04:41:00,55.0,39.0,-100.00,NNW,327,9.0,11.0,55,0.00,,,0.00,0.000000,,2013-02-15 14:41:00,
2013-02-15 05:11:00,60.0,37.0,-100.00,North,0,6.0,10.0,43,0.00,,,0.00,0.000000,,2013-02-15 15:11:00,
2013-02-15 05:21:00,60.0,37.0,-100.00,North,0,6.0,10.0,43,0.00,,,0.00,0.000000,,2013-02-15 15:21:00,
2013-02-15 05:32:00,60.0,37.0,-100.00,North,0,6.0,10.0,43,0.00,,,0.00,0.000000,,2013-02-15 15:32:00,
2013-02-15 05:41:00,60.0,37.0,-100.00,North,0,6.0,10.0,43,0.00,,,0.00,0.000000,,2013-02-15 15:41:00,
2013-02-15 06:11:00,62.0,43.0,-100.00,NNW,340,4.0,10.0,50,0.00,,,0.00,0.000000,,2013-02-15 16:11:00,
2013-02-15 06:22:00,62.0,43.0,-100.00,NNW,340,4.0,10.0,50,0.00,,,0.00,0.000000,,2013-02-15 16:22:00,
2013-02-15 06:31:00,62.0,43.0,-100.00,NNW,340,4.0,10.0,50,0.00,,,0.00,0.000000,,2013-02-15 16:31:00,
2013-02-15 06:42:00,62.0,43.0,-100.00,NNW,340,4.0,10.0,50,0.00,,,0.00,0.000000,,2013-02-15 16:42:00,
2013-02-15 07:11:00,55.0,43.0,-100.00,North,5,4.0,7.0,65,0.00,,,0.00,0.000000,,2013-02-15 17:11:00,
2013-02-15 07:21:00,55.0,43.0,-100.00,North,5,4.0,7.0,65,0.00,,,0.00,0.000000,,2013-02-15 17:21:00,
2013-02-15 07:32:00,55.0,43.0,-100.00,North,5,4.0,7.0,65,0.00,,,0.00,0.000000,,2013-02-15 17:32:00,
2013-02-15 07:41:00,55.0,43.0,-100.00,North,5,4.0,7.0,65,0.00,,,0.00,0.000000,,2013-02-15 17:41:00,
2013-02-15 08:11:00,63.0,41.0,-100.00,NNE,20,7.0,11.0,44,0.00,,,0.00,66.000000,,2013-02-15 18:11:00,
2013-02-15 08:21:00,63.0,41.0,-100.00,NNE,20,7.0,11.0,44,0.00,,,0.00,66.000000,,2013-02-15 18:21:00,
2013-02-15 08:31:00,63.0,41.0,-100.00,NNE,20,7.0,11.0,44,0.00,,,0.00,66.000000,,2013-02-15 18:31:00,
2013-02-15 08:41:00,63.0,41.0,-100.00,NNE,20,7.0,11.0,44,0.00,,,0.00,66.000000,,2013-02-15 18:41:00,
2013-02-15 09:11:00,73.0,50.0,-100.00,NNE,28,7.0,13.0,45,0.00,,,0.00,294.000000,,2013-02-15 19:11:00,
2013-02-15 09:21:00,73.0,50.0,-100.00,NNE,28,7.0,13.0,45,0.00,,,0.00,294.000000,,2013-02-15 19:21:00,
2013-02-15 09:32:00,73.0,50.0,-100.00,NNE,28,7.0,13.0,45,0.00,,,0.00,294.000000,,2013-02-15 19:32:00,
2013-02-15 09:41:00,73.0,50.0,-100.00,NNE,28,7.0,13.0,45,0.00,,,0.00,294.000000,,2013-02-15 19:41:00,
2013-02-15 10:11:00,78.0,51.0,-100.00,ENE,58,9.0,18.0,39,0.00,,,0.00,517.000000,,2013-02-15 20:11:00,
2013-02-15 10:21:00,78.0,51.0,-100.00,ENE,58,9.0,18.0,39,0.00,,,0.00,517.000000,,2013-02-15 20:21:00,
2013-02-15 10:32:00,78.0,51.0,-100.00,ENE,58,9.0,18.0,39,0.00,,,0.00,517.000000,,2013-02-15 20:32:00,
2013-02-15 10:42:00,78.0,51.0,-100.00,ENE,58,9.0,18.0,39,0.00,,,0.00,517.000000,,2013-02-15 20:42:00,
2013-02-15 11:11:00,75.0,56.0,-100.00,East,80,12.0,26.0,52,0.00,,,0.00,663.000000,,2013-02-15 21:11:00,
2013-02-15 11:21:00,75.0,56.0,-100.00,East,80,12.0,26.0,52,0.00,,,0.00,663.000000,,2013-02-15 21:21:00,
2013-02-15 11:31:00,75.0,56.0,-100.00,East,80,12.0,26.0,52,0.00,,,0.00,663.000000,,2013-02-15 21:31:00,
2013-02-15 11:42:00,75.0,56.0,-100.00,East,80,12.0,26.0,52,0.00,,,0.00,663.000000,,2013-02-15 21:42:00,
2013-02-15 12:11:00,73.0,61.0,-100.00,East,97,14.0,27.0,66,0.00,,,0.00,733.000000,,2013-02-15 22:11:00,
2013-02-15 12:21:00,73.0,61.0,-100.00,East,97,14.0,27.0,66,0.00,,,0.00,733.000000,,2013-02-15 22:21:00,
2013-02-15 12:31:00,73.0,61.0,-100.00,East,97,14.0,27.0,66,0.00,,,0.00,733.000000,,2013-02-15 22:31:00,
2013-02-15 12:41:00,73.0,61.0,-100.00,East,97,14.0,27.0,66,0.00,,,0.00,733.000000,,2013-02-15 22:41:00,
2013-02-15 13:11:00,72.0,58.0,-100.00,East,98,13.0,30.0,62,0.00,,,0.00,805.000000,,2013-02-15 23:11:00,
2013-02-15 13:21:00,72.0,58.0,-100.00,East,98,13.0,30.0,62,0.00,,,0.00,805.000000,,2013-02-15 23:21:00,
2013-02-15 13:31:00,72.0,58.0,-100.00,East,98,13.0,30.0,62,0.00,,,0.00,805.000000,,2013-02-15 23:31:00,
2013-02-15 13:41:00,72.0,58.0,-100.00,East,98,13.0,30.0,62,0.00,,,0.00,805.000000,,2013-02-15 23:41:00,
2013-02-15 14:11:00,66.0,60.0,-100.00,NNE,33,7.0,22.0,81,0.04,,,0.04,271.000000,,2013-02-16 00:11:00,
2013-02-15 14:21:00,66.0,60.0,-100.00,NNE,33,7.0,22.0,81,0.04,,,0.04,271.000000,,2013-02-16 00:21:00,
2013-02-15 14:31:00,66.0,60.0,-100.00,NNE,33,7.0,22.0,81,0.04,,,0.04,271.000000,,2013-02-16 00:31:00,
2013-02-15 14:41:00,66.0,60.0,-100.00,NNE,33,7.0,22.0,81,0.04,,,0.04,271.000000,,2013-02-16 00:41:00,
2013-02-15 15:11:00,64.0,60.0,-100.00,NNE,14,7.0,17.0,86,0.06,,,0.10,158.000000,,2013-02-16 01:11:00,
2013-02-15 15:21:00,64.0,60.0,-100.00,NNE,14,7.0,17.0,86,0.06,,,0.10,158.000000,,2013-02-16 01:21:00,
2013-02-15 15:31:00,64.0,60.0,-100.00,NNE,14,7.0,17.0,86,0.06,,,0.10,158.000000,,2013-02-16 01:31:00,
2013-02-15 15:41:00,64.0,60.0,-100.00,NNE,14,7.0,17.0,86,0.06,,,0.10,158.000000,,2013-02-16 01:41:00,
2013-02-15 16:11:00,65.0,60.0,-100.00,North,7,11.0,17.0,84,0.02,,,0.12,251.000000,,2013-02-16 02:11:00,
2013-02-15 16:21:00,65.0,60.0,-100.00,North,7,11.0,17.0,84,0.02,,,0.12,251.000000,,2013-02-16 02:21:00,
2013-02-15 16:31:00,65.0,60.0,-100.00,North,7,11.0,17.0,84,0.02,,,0.12,251.000000,,2013-02-16 02:31:00,
2013-02-15 16:42:00,65.0,60.0,-100.00,North,7,11.0,17.0,84,0.02,,,0.12,251.000000,,2013-02-16 02:42:00,
2013-02-15 17:11:00,64.0,57.0,-100.00,North,357,12.0,17.0,77,0.00,,,0.12,125.000000,,2013-02-16 03:11:00,
2013-02-15 17:21:00,64.0,57.0,-100.00,North,357,12.0,17.0,77,0.00,,,0.12,125.000000,,2013-02-16 03:21:00,
2013-02-15 17:31:00,64.0,57.0,-100.00,North,357,12.0,17.0,77,0.00,,,0.12,125.000000,,2013-02-16 03:31:00,
2013-02-15 17:41:00,64.0,57.0,-100.00,North,357,12.0,17.0,77,0.00,,,0.12,125.000000,,2013-02-16 03:41:00,
2013-02-15 18:11:00,65.0,55.0,-100.00,North,357,9.0,16.0,71,0.00,,,0.12,113.000000,,2013-02-16 04:11:00,
2013-02-15 18:21:00,65.0,55.0,-100.00,North,357,9.0,16.0,71,0.00,,,0.12,113.000000,,2013-02-16 04:21:00,
2013-02-15 18:31:00,65.0,55.0,-100.00,North,357,9.0,16.0,71,0.00,,,0.12,113.000000,,2013-02-16 04:31:00,
2013-02-15 18:41:00,65.0,55.0,-100.00,North,357,9.0,16.0,71,0.00,,,0.12,113.000000,,2013-02-16 04:41:00,
2013-02-15 19:11:00,62.0,54.0,-100.00,NNE,16,5.0,12.0,75,0.00,,,0.12,19.000000,,2013-02-16 05:11:00,
2013-02-15 19:21:00,62.0,54.0,-100.00,NNE,16,5.0,12.0,75,0.00,,,0.12,19.000000,,2013-02-16 05:21:00,
2013-02-15 19:31:00,62.0,54.0,-100.00,NNE,16,5.0,12.0,75,0.00,,,0.12,19.000000,,2013-02-16 05:31:00,
2013-02-15 19:42:00,62.0,54.0,-100.00,NNE,16,5.0,12.0,75,0.00,,,0.12,19.000000,,2013-02-16 05:42:00,
2013-02-15 20:11:00,63.0,55.0,-100.00,NNE,12,6.0,8.0,76,0.00,,,0.12,0.000000,,2013-02-16 06:11:00,
2013-02-15 20:21:00,63.0,55.0,-100.00,NNE,12,6.0,8.0,76,0.00,,,0.12,0.000000,,2013-02-16 06:21:00,
2013-02-15 20:32:00,63.0,55.0,-100.00,NNE,12,6.0,8.0,76,0.00,,,0.12,0.000000,,2013-02-16 06:32:00,
2013-02-15 20:41:00,63.0,55.0,-100.00,NNE,12,6.0,8.0,76,0.00,,,0.12,0.000000,,2013-02-16 06:41:00,
2013-02-15 21:11:00,62.0,55.0,-100.00,NNE,12,5.0,8.0,77,0.00,,,0.12,0.000000,,2013-02-16 07:11:00,
2013-02-15 21:21:00,62.0,55.0,-100.00,NNE,12,5.0,8.0,77,0.00,,,0.12,0.000000,,2013-02-16 07:21:00,
2013-02-15 21:31:00,62.0,55.0,-100.00,NNE,12,5.0,8.0,77,0.00,,,0.12,0.000000,,2013-02-16 07:31:00,
2013-02-15 21:42:00,62.0,55.0,-100.00,NNE,12,5.0,8.0,77,0.00,,,0.12,0.000000,,2013-02-16 07:42:00,
2013-02-15 22:11:00,63.0,56.0,-100.00,North,0,5.0,9.0,77,0.00,,,0.12,0.000000,,2013-02-16 08:11:00,
2013-02-15 22:21:00,63.0,56.0,-100.00,North,0,5.0,9.0,77,0.00,,,0.12,0.000000,,2013-02-16 08:21:00,
2013-02-15 22:31:00,63.0,56.0,-100.00,North,0,5.0,9.0,77,0.00,,,0.12,0.000000,,2013-02-16 08:31:00,
2013-02-15 22:41:00,63.0,56.0,-100.00,North,0,5.0,9.0,77,0.00,,,0.12,0.000000,,2013-02-16 08:41:00,
2013-02-15 23:11:00,61.0,57.0,-100.00,NW,323,6.0,10.0,87,0.01,,,0.13,0.000000,,2013-02-16 09:11:00,
2013-02-15 23:21:00,61.0,57.0,-100.00,NW,323,6.0,10.0,87,0.01,,,0.13,0.000000,,2013-02-16 09:21:00,
2013-02-15 23:31:00,61.0,57.0,-100.00,NW,323,6.0,10.0,87,0.01,,,0.13,0.000000,,2013-02-16 09:31:00,
2013-02-15 23:42:00,61.0,57.0,-100.00,NW,323,6.0,10.0,87,0.01,,,0.13,0.000000,,2013-02-16 09:42:00,